Location: Bieujac
(44.5398°N, 0.1549°W)
Time: 13:23:21
(UTC+00:00)

Shenzhou-11 Module - Pass Details

Date: 17 November 2019
Orbit: 308 x 321 km, 42.8° (Epoch: 05 December)

Event Time Altitude Azimuth Distance (km) Brightness Sun altitude
Exits shadow 05:20:33 39° 188° (S) 482 2.5 -17.5°
Drops below altitude 10° 05:23:00 10° 122° (ESE) 1,197 5.6 -17.1°
Sets 05:25:02 0° 115° (ESE) 2,026 7.3 -16.7°
